Home   Weather   Ilulissat   Past weeks
Flag for Greenland

Past Weather in Ilulissat, Greenland — Yesterday and Last 2 Weeks

Now
28 °F

Partly sunny.


Feels Like: 18 °F
Forecast: 32 / 25 °F
Wind: 12 mph from East

Location: Jacobshavn Lufthavn

Current Time: Oct 17, 2019 at 11:39:09 am

Latest Report: Oct 17, 2019 at 10:50 am


Visibility: N/A

Pressure: 29.95 "Hg

Humidity: 51%

Dew Point: 12 °F

Location of IlulissatLocation

Past Weather in Ilulissat — Graph

°F

Ilulissat Temperature Yesterday

Maximum temperature yesterday: 27 °F (at 12:50 pm)
Minimum temperature yesterday: 19 °F (at 9:50 am)
Average temperature yesterday: 23 °F

High & Low Weather Summary for the Past Weeks

 TemperatureHumidityPressure
High52 °F (Oct 2, 5:50 pm)100% (Oct 11, 1:50 pm)30.24 "Hg (Oct 11, 1:50 pm)
Low18 °F (Oct 13, 7:50 am)28% (Oct 2, 5:50 pm)29.12 "Hg (Oct 5, 4:50 pm)
Average32 °F59%29.74 "Hg
* Reported Oct 2 9:50 am — Oct 17 9:50 am, Ilulissat. Weather by CustomWeather, © 2019

Note: Actual official high and low records may vary slightly from our data, if they occured in-between our weather recording intervals... More about our weather records

Advertising

Ilulissat Weather History for the Previous 24 Hours

Scroll right to see more
 ConditionsComfort  
Time TempWeatherWind HumidityBarometerVisibility
9:50 am
Thu, Oct 17
28 °FPartly sunny.14 mph47%29.95 "HgN/A
8:50 am28 °FPartly sunny.15 mph47%29.92 "HgN/A
7:50 am30 °FPassing clouds.6 mph40%29.95 "HgN/A
5:50 am32 °FPassing clouds.8 mph37%29.95 "HgN/A
4:50 am30 °FPartly cloudy.12 mph40%29.95 "HgN/A
3:50 am30 °FPassing clouds.6 mph43%29.95 "HgN/A
2:50 am28 °FPassing clouds.7 mph55%29.95 "HgN/A
1:50 am27 °FPassing clouds.5 mph54%29.95 "HgN/A
12:50 am27 °FPartly cloudy.5 mph64%29.95 "HgN/A
11:50 pm
Wed, Oct 16
25 °FPartly cloudy.No wind59%29.98 "HgN/A
10:50 pm23 °FPassing clouds.1 mph63%29.98 "HgN/A
9:50 pm21 °FPassing clouds.No wind63%29.98 "HgN/A
8:50 pm21 °FCold.No wind63%29.98 "HgN/A
7:50 pm19 °FCold.No wind73%29.98 "HgN/A
6:50 pm21 °FPassing clouds.2 mph63%30.01 "HgN/A
5:50 pm23 °FPassing clouds.No wind63%29.98 "HgN/A
4:50 pm25 °FScattered clouds.3 mph59%29.98 "HgN/A
3:50 pm27 °FScattered clouds.No wind59%29.98 "HgN/A
1:50 pm27 °FScattered clouds.2 mph54%30.01 "HgN/A
12:50 pm27 °FScattered clouds.No wind54%30.01 "HgN/A
11:50 am23 °FScattered clouds.2 mph58%30.01 "HgN/A
Weather by CustomWeather, © 2019

See weather overview